Retour au catalogue

COSMOS 1275 DEB

ActifPO
NORAD 13074·DEBRIS·🇷🇺 Russia

Lancé Jun 4, 1981 depuis Plesetsk Cosmodrome

Loading…

Prochains Passages (prochaines 24 heures)

TLE

FraisSource: Space-Track

Époque: Sep 14, 2026, 08:05 UTC

1 13074U 81053FA  26257.33747777  .00000355  00000-0  30281-3 0  9999
2 13074  82.9432 112.0399 0031021 354.5676 131.7704 13.84395486268845

Suivez COSMOS 1275 DEB en temps réel avec AllMySat

Download on the App Store